Weather History for Glendive, MT

Change the Weather History Date:

Saturday, June 29, 2013

  Actual Average Record
Temperature  
Mean Temperature 66 °F -  
Max Temperature 82 °F 78 °F 96 °F (2002)
Min Temperature 51 °F 52 °F 41 °F (2003)
Cooling Degree Days 2    
Growing Degree Days 16 (Base 50)    
Moisture  
Dew Point 51 °F    
Average Humidity 56    
Maximum Humidity 88    
Minimum Humidity 34    
Precipitation  
Precipitation 0.00 in - - ()
Sea Level Pressure  
Sea Level Pressure 30.19 in    
Wind  
Wind Speed 6 mph (North)    
Max Wind Speed 15 mph    
Max Gust Speed 20 mph    
Visibility 10 miles    
Events      
Averages and records for this station are not official NWS values.
T = Trace of Precipitation, MM = Missing Value Source: NWS Daily Summary

Daily Weather History Graph

Daily Weather History Graph

Search for Another Location

Airport:

Trip Planner

Search our weather history database for the weather conditions in past years. The results will help you decide how hot, cold, wet, or windy it might be!

Date:

Astronomy

Jun. 29, 2013 Rise Set
Actual Time 5:06 AM MDT 8:58 PM MDT
Civil Twilight 4:26 AM MDT 9:38 PM MDT
Nautical Twilight 3:32 AM MDT 10:32 PM MDT
Astronomical Twilight 2:10 AM MDT 11:53 PM MDT
Moon 12:00 AM MDT (6/29) 12:51 PM MDT (6/29)
Length of Visible Light 17h 11m
Length of Day
15h 52m
Waning Gibbous, 55% of the Moon is Illuminated
Jun 29
Waning Gibbous
Jun 29
Last Quarter
Jul 8
New
Jul 15
First Quarter
Jul 22
Full

Hourly Weather History & Observations

Time (MDT) Temp. Heat Index Dew Point Humidity Pressure Visibility Wind Dir Wind Speed Gust Speed Precip Events Conditions
12:35 AM 59.0 °F - 51.8 °F 77% 30.20 in 10.0 mi Calm Calm - N/A   Clear
12:55 AM 60.8 °F - 50.0 °F 68% 30.20 in 10.0 mi NNW 4.6 mph - N/A   Clear
1:15 AM 57.2 °F - 48.2 °F 72% 30.20 in 10.0 mi WNW 5.8 mph - N/A   Clear
1:55 AM 55.4 °F - 48.2 °F 77% 30.20 in 10.0 mi West 4.6 mph - N/A   Clear
2:15 AM 55.4 °F - 48.2 °F 77% 30.20 in 10.0 mi WNW 5.8 mph - N/A   Clear
2:35 AM 53.6 °F - 48.2 °F 82% 30.20 in 10.0 mi West 6.9 mph - N/A   Clear
2:55 AM 53.6 °F - 46.4 °F 77% 30.20 in 10.0 mi West 9.2 mph - N/A   Clear
3:15 AM 53.6 °F - 46.4 °F 77% 30.20 in 10.0 mi WNW 9.2 mph - N/A   Clear
3:35 AM 53.6 °F - 46.4 °F 77% 30.21 in 10.0 mi NW 5.8 mph - N/A   Clear
3:55 AM 51.8 °F - 46.4 °F 82% 30.20 in 10.0 mi NW 6.9 mph - N/A   Clear
4:15 AM 51.8 °F - 46.4 °F 82% 30.20 in 10.0 mi NW 6.9 mph - N/A   Clear
4:35 AM 51.8 °F - 46.4 °F 82% 30.20 in 10.0 mi NW 6.9 mph - N/A   Clear
4:55 AM 51.8 °F - 48.2 °F 88% 30.20 in 10.0 mi NW 8.1 mph - N/A   Clear
5:15 AM 51.8 °F - 46.4 °F 82% 30.21 in 10.0 mi WNW 6.9 mph - N/A   Clear
5:35 AM 53.6 °F - 48.2 °F 82% 30.21 in 10.0 mi WNW 6.9 mph - N/A   Clear
5:55 AM 55.4 °F - 48.2 °F 77% 30.21 in 10.0 mi NW 5.8 mph - N/A   Clear
6:15 AM 57.2 °F - 50.0 °F 77% 30.21 in 10.0 mi Calm Calm - N/A   Clear
6:35 AM 59.0 °F - 51.8 °F 77% 30.21 in 10.0 mi Calm Calm - N/A   Clear
6:55 AM 62.6 °F - 51.8 °F 68% 30.21 in 10.0 mi Calm Calm - N/A   Clear
7:15 AM 62.6 °F - 53.6 °F 72% 30.22 in 10.0 mi Calm Calm - N/A   Clear
7:35 AM 64.4 °F - 53.6 °F 68% 30.21 in 10.0 mi Calm Calm - N/A   Clear
7:55 AM 69.8 °F - 55.4 °F 60% 30.21 in 10.0 mi Calm Calm - N/A   Clear
8:15 AM 71.6 °F - 55.4 °F 57% 30.21 in 10.0 mi Calm Calm - N/A   Clear
8:35 AM 73.4 °F - 55.4 °F 53% 30.21 in 10.0 mi Calm Calm - N/A   Clear
8:55 AM 75.2 °F - 55.4 °F 50% 30.21 in 10.0 mi Calm Calm - N/A   Clear
9:15 AM 77.0 °F - 53.6 °F 44% 30.20 in 10.0 mi SSW 3.5 mph - N/A   Clear
9:35 AM 75.2 °F - 50.0 °F 41% 30.20 in 10.0 mi NW 4.6 mph - N/A   Clear
9:55 AM 75.2 °F - 48.2 °F 38% 30.20 in 10.0 mi NNW 6.9 mph - N/A   Clear
10:15 AM 77.0 °F - 48.2 °F 36% 30.20 in 10.0 mi WNW 6.9 mph - N/A   Clear
10:35 AM 78.8 °F - 48.2 °F 34% 30.19 in 10.0 mi NNW 8.1 mph - N/A   Clear
10:55 AM 78.8 °F - 50.0 °F 36% 30.19 in 10.0 mi NNE 9.2 mph 19.6 mph N/A   Clear
11:15 AM 78.8 °F - 48.2 °F 34% 30.19 in 10.0 mi NNE 11.5 mph - N/A   Clear
11:35 AM 80.6 °F - 50.0 °F 34% 30.19 in 10.0 mi NE 6.9 mph - N/A   Clear
11:55 AM 78.8 °F - 53.6 °F 42% 30.19 in 10.0 mi NNE 9.2 mph - N/A   Clear
12:15 PM 80.6 °F - 51.8 °F 37% 30.19 in 10.0 mi NNW 8.1 mph - N/A   Clear
12:55 PM 80.6 °F - 50.0 °F 34% 30.19 in 10.0 mi North 11.5 mph - N/A   Clear
1:15 PM 80.6 °F - 50.0 °F 34% 30.18 in 10.0 mi NNW 11.5 mph 17.3 mph N/A   Clear
1:35 PM 80.6 °F - 50.0 °F 34% 30.18 in 10.0 mi NNW 12.7 mph - N/A   Clear
1:55 PM 80.6 °F - 50.0 °F 34% 30.18 in 10.0 mi NNE 12.7 mph 17.3 mph N/A   Clear
2:35 PM 82.4 °F - 51.8 °F 35% 30.18 in 10.0 mi North 9.2 mph - N/A   Scattered Clouds
2:55 PM 80.6 °F - 51.8 °F 37% 30.17 in 10.0 mi NNE 12.7 mph 16.1 mph N/A   Mostly Cloudy
3:15 PM 80.6 °F - 51.8 °F 37% 30.17 in 10.0 mi NNE 10.4 mph - N/A   Scattered Clouds
3:35 PM 80.6 °F - 51.8 °F 37% 30.17 in 10.0 mi NNE 11.5 mph 17.3 mph N/A   Scattered Clouds
3:55 PM 80.6 °F - 51.8 °F 37% 30.16 in 10.0 mi North 11.5 mph 16.1 mph N/A   Scattered Clouds
4:15 PM 80.6 °F - 51.8 °F 37% 30.16 in 10.0 mi North 10.4 mph - N/A   Scattered Clouds
4:35 PM 80.6 °F - 51.8 °F 37% 30.16 in 10.0 mi NNW 9.2 mph - N/A   Scattered Clouds
4:55 PM 78.8 °F - 53.6 °F 42% 30.15 in 10.0 mi NE 11.5 mph - N/A   Scattered Clouds
5:15 PM 78.8 °F - 53.6 °F 42% 30.15 in 10.0 mi North 10.4 mph - N/A   Mostly Cloudy
5:35 PM 80.6 °F 80.3 °F 53.6 °F 39% 30.15 in 10.0 mi NE 11.5 mph - N/A   Mostly Cloudy
5:55 PM 77.0 °F - 53.6 °F 44% 30.15 in 10.0 mi NNE 13.8 mph - N/A   Partly Cloudy
6:15 PM 77.0 °F - 53.6 °F 44% 30.15 in 10.0 mi NNE 12.7 mph 16.1 mph N/A   Clear
6:35 PM 77.0 °F - 53.6 °F 44% 30.14 in 10.0 mi NE 15.0 mph - N/A   Clear
6:55 PM 75.2 °F - 53.6 °F 47% 30.15 in 10.0 mi NE 11.5 mph - N/A   Clear
7:15 PM 75.2 °F - 53.6 °F 47% 30.14 in 10.0 mi NE 12.7 mph - N/A   Clear
7:35 PM 75.2 °F - 53.6 °F 47% 30.15 in 10.0 mi ENE 12.7 mph - N/A   Clear
7:55 PM 73.4 °F - 53.6 °F 50% 30.15 in 10.0 mi ENE 11.5 mph 16.1 mph N/A   Clear
8:35 PM 69.8 °F - 53.6 °F 56% 30.15 in 10.0 mi ENE 8.1 mph - N/A   Clear
9:15 PM 66.2 °F - 51.8 °F 60% 30.16 in 10.0 mi NE 9.2 mph - N/A   Clear
9:35 PM 66.2 °F - 51.8 °F 60% 30.16 in 10.0 mi NE 8.1 mph - N/A   Clear
9:55 PM 66.2 °F - 51.8 °F 60% 30.18 in 10.0 mi NNE 5.8 mph - N/A   Clear
10:15 PM 64.4 °F - 51.8 °F 64% 30.19 in 10.0 mi NNE 5.8 mph - N/A   Clear
10:35 PM 62.6 °F - 51.8 °F 68% 30.19 in 10.0 mi Calm Calm - N/A   Clear
10:55 PM 60.8 °F - 51.8 °F 72% 30.18 in 9.0 mi NNE 5.8 mph - N/A   Clear
11:15 PM 62.6 °F - 51.8 °F 68% 30.18 in 10.0 mi NE 6.9 mph - N/A   Clear
11:35 PM 62.6 °F - 51.8 °F 68% 30.18 in 10.0 mi NE 4.6 mph - N/A   Clear